Wind_Speed
2 2 2 2 3 5 6 7 8 8 8 8 8 8 8 8 8 8 7 6 6 6 5 6 6 6 6 6 6 6 6 6 6 6 6 6 6 6 7 7 8 8 8
4 3 3 3 4 5 6 7 7 7 7 7 7 7 7 7 7 7 7 6 6 6 6 6 6 6 6 6 6 6 6 6 6 6 6 6 7 7 7 7 8 8 8
6 5 5 5 5 5 6 6 6 6 6 6 6 6 6 6 6 6 6 6 6 6 6 6 6 5 5 5 6 6 6 6 6 6 6 6 7 7 7 7 7 8 8
7 7 6 6 6 6 6 6 6 5 5 5 5 5 5 5 5 6 6 5 5 5 5 5 5 5 5 5 5 5 5 5 6 6 6 6 6 6 7 7 7 8 8
8 9 8 7 7 7 6 6 5 4 4 4 4 4 4 4 4 4 5 5 5 4 5 5 4 4 4 4 4 4 4 5 5 5 5 5 5 5 5 6 7 8 8
9 9 9 8 8 8 7 6 5 4 3 3 2 2 2 2 3 4 4 4 4 4 4 4 4 4 3 3 3 3 3 3 4 4 5 5 5 4 4 5 5 6 6
9 10 10 9 9 8 8 7 6 4 4 2 1 1 1 2 2 3 4 4 4 4 4 4 4 4 3 2 2 2 2 2 3 3 4 4 4 4 4 4 4 5 5
10 11 11 10 9 9 8 8 6 5 4 3 2 1 1 1 2 3 3 4 4 4 4 4 4 3 3 1 1 1 1 1 1 1 2 3 3 4 3 3 4 4 4
10 11 12 11 11 11 10 9 8 7 5 4 3 2 2 2 3 3 4 4 4 4 4 4 3 3 2 1 0 0 0 1 0 1 2 2 3 3 3 2 3 3 3
12 13 13 13 13 12 12 10 9 8 7 5 4 3 3 3 4 4 4 4 4 5 4 4 3 3 2 2 2 2 1 1 1 1 1 1 2 2 2 2 2 2 2
12 12 12 13 15 14 13 12 10 9 8 7 5 5 5 5 5 5 5 5 5 4 4 4 3 3 3 3 3 3 2 2 2 2 2 2 1 2 2 2 2 2 2
12 13 13 14 15 15 15 14 12 11 9 8 7 6 6 6 6 7 6 6 6 5 5 5 4 4 4 4 4 4 4 4 4 4 3 3 3 3 3 3 4 4 3
12 13 15 15 15 15 16 16 14 12 11 10 9 8 7 7 7 7 7 6 6 6 5 5 5 5 5 5 5 5 5 5 5 5 5 5 4 4 4 4 5 5 5
11 13 15 15 15 16 17 16 16 14 12 11 11 9 8 8 7 6 7 6 6 6 6 5 5 5 6 6 6 6 6 6 6 6 6 6 5 5 5 6 6 6 7
10 12 14 15 15 15 16 16 15 15 14 13 11 10 10 9 8 8 7 7 7 7 6 6 6 5 5 5 5 6 6 6 6 6 6 6 6 6 6 7 7 7 8
10 13 16 16 16 16 17 17 15 15 15 14 13 12 10 10 8 7 6 7 7 7 6 6 6 6 5 5 5 5 5 5 5 5 6 7 7 7 7 7 7 7 8
12 13 16 18 18 17 17 17 16 17 15 15 14 13 11 10 9 7 6 6 6 6 5 4 4 4 4 5 5 5 5 5 5 5 5 6 6 7 7 7 8 8 8
12 14 16 17 19 18 17 18 18 18 17 17 16 14 13 11 9 8 7 7 6 5 4 3 3 3 4 4 4 5 5 5 5 5 5 5 6 6 6 7 8 8 8
12 12 13 16 18 19 18 18 19 18 18 18 17 15 14 12 10 8 8 7 5 5 4 4 3 3 3 3 4 4 4 5 5 5 5 5 5 6 7 7 8 9 9
12 13 13 16 19 18 18 18 18 18 18 18 17 15 13 11 10 9 8 8 6 5 4 4 3 3 2 2 2 3 3 4 4 5 5 5 6 7 7 7 8 9 9
12 13 14 17 18 18 18 17 17 18 18 16 15 14 13 12 11 10 9 8 6 5 5 4 3 3 2 1 1 1 2 3 3 4 4 4 5 6 7 8 8 8 8
9 11 13 15 18 19 18 17 17 17 17 16 16 15 13 12 12 11 10 9 8 6 5 4 4 3 2 1 2 2 2 2 2 3 3 4 5 6 6 7 8 8 9
9 10 12 15 17 19 19 18 17 17 17 17 16 15 14 13 12 12 11 10 9 7 6 5 4 3 2 2 2 2 2 2 2 3 4 5 6 6 7 7 7 8 9
10 10 12 14 16 18 18 17 17 17 17 17 16 15 15 14 12 12 12 10 9 8 6 6 5 4 3 2 2 1 1 1 2 3 4 5 5 6 7 7 8 8 9
8 10 12 13 15 17 18 18 18 18 18 17 16 16 16 15 13 13 12 11 10 8 7 6 5 4 3 2 2 1 1 2 3 4 4 5 6 6 7 7 8 9 9
8 10 12 13 15 16 18 18 18 19 18 17 17 17 16 15 14 14 13 12 10 9 8 6 5 4 3 3 2 2 3 3 4 4 5 6 6 6 7 8 9 10 10
Wind_Direction
264 253 225 190 157 133 119 110 102 95 89 82 77 72 67 64 61 58 57 58 60 63 66 69 69 67 69 72 72 71 69 71 72 77 82 86 84 87 96 98 100 100 101
259 258 240 201 175 149 129 119 111 102 92 85 81 77 73 68 62 57 55 54 55 57 58 58 58 60 64 66 67 69 69 70 73 75 78 85 89 92 97 101 102 103 103
257 259 247 214 189 167 144 130 118 109 100 92 88 83 77 70 63 56 52 50 52 53 49 46 48 53 58 60 62 64 69 71 76 76 81 90 93 98 102 102 103 106 108
261 249 235 224 205 186 166 147 131 120 110 102 98 91 84 72 63 56 49 46 46 46 43 39 39 42 51 55 57 61 67 71 74 75 83 90 98 101 100 103 106 107 107
262 250 233 222 207 194 180 164 149 136 123 114 110 102 88 69 58 49 41 36 34 32 29 28 28 31 39 46 54 63 63 67 70 75 81 85 95 99 103 107 111 109 107
260 247 234 220 208 199 188 175 164 156 143 129 122 116 89 56 41 32 26 24 19 15 14 12 12 19 27 35 50 68 68 70 72 75 78 85 91 95 100 108 115 116 112
256 240 226 219 211 203 196 189 180 177 170 159 144 124 70 32 15 9 10 8 5 358 356 355 357 7 14 27 52 79 83 79 80 83 84 86 87 90 96 105 118 124 120
255 236 222 219 214 205 199 196 191 191 189 191 198 215 312 329 333 340 345 345 343 342 341 339 345 350 353 4 44 91 117 102 100 96 94 91 91 94 101 104 112 123 130
252 237 223 218 214 208 203 202 200 200 199 204 213 238 262 290 304 312 321 327 330 330 327 323 320 326 330 322 281 233 199 215 167 122 115 100 101 104 107 113 117 119 135
252 239 229 221 216 211 206 206 205 205 206 210 218 241 252 271 286 296 300 307 316 317 312 308 305 295 280 264 256 252 243 239 231 195 175 140 122 134 139 138 148 139 141
252 238 228 223 221 213 209 208 209 210 215 221 225 239 249 259 276 287 290 297 302 306 304 301 297 282 264 256 254 252 252 255 247 235 224 211 197 193 190 197 196 193 186
246 235 230 227 220 214 211 210 213 216 221 229 232 242 251 259 273 282 285 287 290 295 297 294 292 276 256 251 249 252 252 254 260 248 241 236 232 227 225 226 225 223 221
243 236 232 228 222 218 214 212 213 216 220 226 232 243 252 262 273 279 278 279 280 283 288 286 283 269 251 246 247 249 250 251 258 252 248 242 238 235 238 238 238 233 232
242 232 228 225 222 220 217 216 216 217 221 223 229 236 247 258 262 265 272 273 274 273 276 277 271 256 244 242 246 247 252 254 249 252 249 244 242 241 244 249 250 242 238
242 232 223 220 222 220 218 218 220 218 218 222 229 236 246 252 256 258 262 266 265 266 269 272 262 250 245 243 244 249 255 257 248 250 248 247 245 241 246 252 255 249 244
240 234 228 225 223 219 217 217 222 220 220 224 227 233 240 247 250 257 257 256 260 262 264 267 261 252 242 241 243 248 250 253 250 247 253 258 252 247 247 250 256 257 249
240 233 228 225 221 217 216 216 220 222 224 224 226 232 237 238 241 249 250 249 251 254 254 254 255 245 240 241 245 250 251 249 246 247 259 260 253 247 249 253 262 265 260
241 234 229 221 217 217 216 217 219 223 228 224 225 230 232 230 232 235 233 235 238 238 233 232 237 239 239 245 249 250 247 245 245 247 255 258 255 258 256 258 266 270 263
248 237 229 221 215 215 218 218 219 223 226 224 222 226 226 222 222 222 222 225 227 222 221 226 237 243 245 253 257 253 246 247 246 243 250 259 263 263 264 263 266 267 265
248 239 231 221 214 212 214 214 216 218 221 220 218 219 217 213 213 214 212 216 215 211 213 217 227 239 251 256 257 250 242 242 246 249 252 258 265 266 269 268 270 268 268
249 239 228 216 210 213 213 214 215 216 215 214 215 215 213 210 210 210 207 207 200 196 197 199 207 221 230 228 238 241 233 236 249 258 263 266 272 275 275 272 273 274 276
251 233 221 211 209 212 213 212 210 210 209 207 207 208 207 207 209 207 206 201 197 198 199 200 199 206 208 205 219 219 220 228 257 270 281 281 282 284 287 285 283 283 284
242 228 217 208 207 208 209 205 200 204 205 203 203 206 206 206 206 205 201 198 197 200 203 200 196 193 198 201 207 212 211 244 269 281 286 285 285 286 289 291 293 291 286
235 224 214 208 205 205 204 200 201 201 203 202 205 206 204 202 203 200 198 196 194 195 191 187 181 181 190 195 200 212 231 263 280 294 298 299 298 295 294 295 296 296 295
239 222 210 205 202 199 198 196 196 197 198 200 201 202 201 199 198 196 194 194 194 192 188 183 178 182 190 199 211 232 270 293 299 304 305 306 305 302 300 301 304 302 299
220 213 210 203 198 197 196 194 194 196 197 199 199 199 197 196 195 196 196 195 195 195 195 191 190 198 209 227 241 260 280 294 301 305 307 308 308 308 305 303 302 301 301
Height
5874 5875 5876 5876 5877 5877 5877 5877 5878 5879 5880 5882 5882 5883 5884 5885 5886 5886 5886 5887 5887 5888 5888 5888 5889 5889 5889 5889 5890 5890 5890 5890 5890 5890 5890 5890 5890 5890 5890 5890 5890 5891 5891
5873 5874 5875 5876 5876 5877 5877 5878 5879 5880 5881 5882 5883 5884 5885 5886 5886 5887 5887 5888 5888 5888 5889 5889 5889 5890 5890 5890 5891 5891 5891 5891 5891 5891 5891 5891 5891 5891 5891 5891 5892 5892 5892
5872 5873 5874 5875 5876 5876 5877 5878 5879 5880 5881 5882 5883 5884 5885 5886 5887 5887 5888 5889 5889 5889 5890 5890 5890 5890 5891 5891 5891 5892 5892 5892 5892 5892 5892 5892 5892 5892 5893 5893 5893 5893 5893
5871 5872 5873 5874 5875 5876 5876 5877 5879 5880 5881 5882 5883 5885 5886 5886 5887 5888 5888 5889 5890 5890 5890 5891 5891 5891 5892 5892 5892 5892 5892 5892 5892 5893 5893 5893 5893 5893 5894 5894 5894 5894 5894
5870 5870 5871 5873 5874 5875 5876 5877 5878 5880 5881 5882 5883 5884 5885 5886 5887 5888 5888 5889 5890 5890 5891 5891 5891 5892 5892 5892 5893 5893 5893 5893 5893 5893 5894 5894 5894 5894 5894 5895 5895 5895 5895
5868 5869 5870 5871 5872 5874 5875 5876 5878 5879 5880 5882 5883 5884 5885 5886 5887 5887 5888 5889 5890 5890 5891 5891 5891 5892 5892 5892 5893 5893 5894 5894 5894 5894 5894 5895 5895 5895 5895 5895 5896 5896 5896
5866 5867 5868 5870 5871 5872 5874 5875 5877 5878 5880 5881 5882 5883 5884 5885 5886 5887 5888 5889 5889 5890 5890 5891 5891 5892 5892 5892 5893 5893 5894 5894 5894 5895 5895 5895 5895 5895 5896 5896 5896 5897 5897
5864 5865 5866 5868 5869 5871 5873 5874 5876 5878 5879 5880 5882 5883 5883 5884 5885 5886 5887 5888 5889 5889 5889 5890 5890 5891 5891 5892 5892 5893 5893 5894 5894 5895 5895 5895 5896 5896 5897 5897 5897 5897 5898
5861 5863 5864 5866 5868 5869 5871 5873 5875 5877 5878 5879 5881 5882 5883 5884 5884 5885 5886 5887 5888 5888 5889 5889 5890 5890 5891 5891 5892 5892 5893 5893 5894 5894 5895 5895 5896 5897 5897 5898 5898 5898 5898
5859 5860 5862 5864 5866 5868 5869 5872 5873 5875 5877 5878 5879 5881 5882 5883 5883 5884 5885 5886 5887 5887 5888 5888 5889 5889 5890 5890 5891 5892 5892 5893 5893 5894 5895 5895 5896 5896 5897 5898 5898 5898 5899
5857 5858 5859 5861 5863 5865 5867 5870 5872 5874 5876 5877 5878 5879 5881 5882 5882 5883 5884 5885 5886 5886 5887 5887 5888 5888 5889 5889 5890 5891 5892 5892 5893 5894 5894 5895 5895 5896 5897 5897 5898 5898 5899
5854 5855 5857 5859 5861 5863 5865 5867 5870 5872 5874 5876 5877 5878 5879 5880 5881 5882 5882 5883 5884 5885 5886 5886 5887 5887 5888 5888 5889 5890 5891 5891 5892 5893 5893 5894 5895 5895 5896 5897 5897 5898 5898
5850 5852 5854 5856 5858 5860 5862 5864 5867 5870 5872 5874 5875 5877 5878 5879 5879 5880 5881 5882 5883 5883 5884 5885 5886 5886 5886 5887 5888 5889 5890 5890 5891 5891 5892 5893 5893 5894 5895 5896 5896 5897 5897
5847 5848 5851 5853 5855 5858 5860 5862 5865 5868 5870 5872 5874 5875 5876 5877 5877 5878 5879 5880 5881 5882 5883 5883 5884 5885 5885 5886 5887 5887 5888 5889 5889 5890 5891 5892 5892 5893 5894 5894 5895 5895 5896
5844 5845 5848 5850 5853 5855 5858 5861 5863 5865 5868 5870 5871 5873 5874 5875 5876 5876 5877 5878 5879 5880 5881 5882 5883 5883 5884 5885 5885 5886 5887 5887 5888 5889 5889 5890 5891 5892 5892 5893 5893 5894 5894
5841 5842 5845 5847 5850 5852 5855 5858 5860 5863 5865 5867 5869 5871 5872 5873 5874 5875 5875 5877 5878 5879 5880 5880 5881 5882 5883 5884 5884 5885 5885 5886 5887 5887 5888 5888 5889 5890 5890 5891 5892 5892 5892
5838 5839 5841 5844 5847 5849 5852 5855 5858 5860 5863 5865 5867 5869 5870 5871 5872 5873 5874 5875 5877 5878 5878 5879 5880 5881 5882 5882 5883 5884 5884 5885 5885 5886 5886 5887 5887 5888 5889 5889 5890 5890 5890
5834 5836 5837 5839 5843 5846 5849 5852 5854 5857 5859 5862 5864 5866 5868 5869 5871 5872 5873 5875 5876 5877 5878 5879 5880 5880 5881 5881 5882 5882 5883 5883 5884 5885 5885 5886 5886 5887 5887 5888 5888 5888 5889
5831 5832 5834 5837 5840 5843 5846 5849 5851 5853 5856 5858 5861 5864 5865 5867 5869 5870 5872 5874 5875 5876 5877 5878 5879 5880 5880 5881 5881 5881 5882 5883 5883 5883 5884 5884 5885 5885 5885 5886 5886 5886 5887
5828 5830 5831 5834 5837 5839 5842 5845 5848 5851 5853 5856 5859 5862 5864 5866 5867 5869 5871 5873 5874 5875 5876 5877 5878 5879 5879 5880 5880 5881 5881 5882 5882 5882 5883 5883 5883 5884 5884 5884 5884 5884 5884
5825 5827 5828 5831 5834 5837 5840 5843 5845 5848 5851 5854 5857 5860 5862 5864 5866 5868 5870 5872 5873 5874 5876 5876 5877 5878 5879 5879 5880 5880 5880 5881 5881 5881 5881 5882 5882 5882 5882 5882 5882 5883 5883
5822 5824 5826 5828 5831 5835 5837 5840 5843 5846 5849 5852 5855 5858 5860 5863 5865 5867 5869 5871 5872 5874 5875 5876 5877 5877 5878 5879 5879 5880 5880 5881 5880 5880 5881 5881 5881 5881 5881 5881 5881 5881 5881
5820 5822 5824 5825 5828 5831 5834 5837 5840 5843 5847 5851 5853 5856 5859 5861 5863 5866 5868 5870 5872 5873 5874 5875 5876 5877 5878 5878 5879 5879 5880 5880 5880 5880 5880 5880 5880 5879 5879 5879 5879 5879 5878
5818 5819 5821 5824 5826 5829 5831 5835 5838 5842 5846 5849 5851 5854 5857 5860 5862 5864 5867 5869 5871 5873 5874 5875 5875 5876 5877 5878 5878 5879 5879 5879 5880 5880 5879 5879 5878 5878 5878 5877 5877 5877 5876
5817 5818 5820 5822 5824 5827 5830 5833 5837 5840 5844 5847 5849 5853 5855 5858 5861 5864 5866 5868 5870 5872 5873 5874 5875 5876 5877 5877 5878 5878 5878 5879 5879 5879 5878 5878 5877 5877 5876 5876 5875 5874 5874
5816 5817 5819 5821 5823 5826 5829 5832 5835 5839 5842 5845 5848 5851 5854 5857 5860 5863 5865 5867 5869 5871 5872 5873 5874 5875 5876 5877 5877 5878 5878 5878 5878 5878 5877 5877 5876 5876 5875 5874 5873 5873 5872